TimeCDT,TemperatureF,Dew PointF,Humidity,Sea Level PressureIn,VisibilityMPH,Wind Direction,Wind SpeedMPH,Gust SpeedMPH,PrecipitationIn,Events,Conditions,WindDirDegrees,DateUTC
12:53 AM,64.9,55.9,73,29.53,10.0,South,18.4,26.5,N/A,,Clear,170,2012-10-17 05:53:00
1:53 AM,64.0,57.0,78,29.52,10.0,South,18.4,-,N/A,,Clear,170,2012-10-17 06:53:00
2:53 AM,63.0,59.0,87,29.51,10.0,South,15.0,23.0,N/A,,Partly Cloudy,170,2012-10-17 07:53:00
3:22 AM,62.6,59.0,88,29.51,10.0,South,15.0,-,N/A,,Mostly Cloudy,170,2012-10-17 08:22:00
3:53 AM,64.0,60.1,87,29.49,10.0,South,13.8,-,N/A,,Mostly Cloudy,170,2012-10-17 08:53:00
4:53 AM,66.0,62.1,87,29.45,10.0,South,12.7,-,N/A,,Mostly Cloudy,170,2012-10-17 09:53:00
5:53 AM,68.0,63.0,84,29.43,10.0,South,13.8,-,N/A,,Overcast,170,2012-10-17 10:53:00
6:53 AM,68.0,63.0,84,29.42,10.0,South,18.4,24.2,N/A,,Overcast,170,2012-10-17 11:53:00
7:53 AM,69.1,64.0,84,29.43,10.0,South,16.1,-,N/A,,Mostly Cloudy,170,2012-10-17 12:53:00
8:53 AM,70.0,64.0,81,29.44,10.0,SSE,8.1,-,N/A,,Overcast,160,2012-10-17 13:53:00
9:41 AM,71.6,64.4,78,29.46,10.0,South,10.4,-,N/A,,Overcast,170,2012-10-17 14:41:00
9:53 AM,72.0,64.0,76,29.45,10.0,South,10.4,-,N/A,,Overcast,180,2012-10-17 14:53:00
10:53 AM,73.9,64.0,71,29.47,10.0,SSW,6.9,-,N/A,,Mostly Cloudy,200,2012-10-17 15:53:00
11:53 AM,73.9,62.1,66,29.48,10.0,WNW,12.7,-,N/A,,Mostly Cloudy,290,2012-10-17 16:53:00
12:53 PM,75.0,62.1,64,29.45,10.0,NNE,12.7,-,N/A,,Scattered Clouds,30,2012-10-17 17:53:00
1:53 PM,78.1,60.1,54,29.50,10.0,North,8.1,19.6,N/A,,Mostly Cloudy,360,2012-10-17 18:53:00
2:53 PM,79.0,55.9,45,29.52,10.0,NW,20.7,27.6,N/A,,Scattered Clouds,320,2012-10-17 19:53:00
3:53 PM,75.0,52.0,44,29.56,10.0,NW,18.4,28.8,N/A,,Scattered Clouds,310,2012-10-17 20:53:00
4:53 PM,73.9,44.1,34,29.58,10.0,NNW,19.6,29.9,N/A,,Scattered Clouds,330,2012-10-17 21:53:00
5:53 PM,72.0,41.0,33,29.62,10.0,NW,11.5,25.3,N/A,,Partly Cloudy,310,2012-10-17 22:53:00
6:53 PM,68.0,41.0,37,29.65,10.0,NW,8.1,-,N/A,,Scattered Clouds,310,2012-10-17 23:53:00
7:53 PM,64.9,39.9,40,29.68,10.0,NW,8.1,-,N/A,,Partly Cloudy,310,2012-10-18 00:53:00
8:53 PM,64.0,36.0,35,29.72,10.0,NW,13.8,-,N/A,,Clear,310,2012-10-18 01:53:00
9:53 PM,59.0,35.1,41,29.74,10.0,NW,6.9,-,N/A,,Clear,320,2012-10-18 02:53:00
10:53 PM,57.0,34.0,42,29.76,10.0,WNW,5.8,-,N/A,,Clear,300,2012-10-18 03:53:00
11:53 PM,53.1,36.0,52,29.79,10.0,West,6.9,-,N/A,,Clear,270,2012-10-18 04:53:00